Location: Unspecified
(0.0000°N, 0.0000°E)
Time: 06:55:44
(UTC+00:00)

N. Korean satellite - Pass Details

Date: 26 July 2021
Orbit: 451 x 498 km, 97.2° (Epoch: 31 July)

Event Time Altitude Azimuth Distance (km) Brightness Sun altitude
Rises 05:20:57 0° 354° (N) 2,500 10.4 -10.8°
Reaches altitude 10° 05:23:11 10° 342° (NNW) 1,618 9.2 -10.2°
Maximum altitude 05:26:13 29° 281° (W) 883 7.4 -9.5°
Drops below altitude 10° 05:29:15 10° 220° (SW) 1,605 8.7 -8.8°
Enters shadow 05:29:55 - 215° (SW) 1,861 9.0 -8.6°
